Location: Unspecified
(33.4307°N, 0.0000°E)
Time: 04:53:16
(UTC+00:00)

ESTCUBE 1 - Visible Passes

Search period start: 05 April 2026 00:00
Search period end: 15 April 2026 00:00
Orbit: 621 x 630 km, 97.7° (Epoch: 29 March)

Date Brightness Start Highest point End Pass type
(mag) Time Alt. Az. Time Alt. Az. Time Alt. Az.
5 Apr ? 20:33:08 28° NNE 20:33:08 28° NNE 20:35:23 10° N visible
6 Apr ? 20:52:13 30° N 20:52:13 30° N 20:54:30 10° N visible
7 Apr ? 19:34:02 10° ENE 19:34:02 10° ENE 19:34:17 10° NE visible
7 Apr ? 21:11:18 27° NNW 21:11:18 27° NNW 21:13:23 10° NNW visible
8 Apr ? 19:53:07 16° NE 19:53:07 16° NE 19:55:03 10° NNE visible
8 Apr ? 21:30:23 20° NW 21:30:23 20° NW 21:32:03 10° NNW visible
9 Apr ? 20:12:12 24° NE 20:12:12 24° NE 20:14:42 10° NNE visible
9 Apr ? 21:49:29 14° WNW 21:49:29 14° WNW 21:50:23 10° NW visible
10 Apr ? 20:31:16 34° NNE 20:31:16 34° NNE 20:34:02 10° N visible
11 Apr ? 20:50:21 39° N 20:50:21 39° N 20:53:08 10° N visible
12 Apr ? 19:32:09 10° ENE 19:32:09 10° ENE 19:32:39 10° ENE visible
12 Apr ? 21:09:25 33° NW 21:09:25 33° NW 21:12:01 10° NNW visible
13 Apr ? 19:51:13 17° ENE 19:51:13 17° ENE 19:53:35 10° NNE visible
13 Apr ? 21:28:29 24° NW 21:28:29 24° NW 21:30:41 10° NNW visible
14 Apr ? 20:10:17 26° NE 20:10:17 26° NE 20:13:15 10° NNE visible
14 Apr ? 21:47:33 16° WNW 21:47:33 16° WNW 21:49:00 10° NW visible
